Location: Morlupo
(42.1333°N, 12.5000°E)
Time: 15:45:58
(UTC+00:00)

STPSAT 2 (USA 217) - Pass Details

Date: 18 September 2020
Orbit: 624 x 644 km, 72.0° (Epoch: 19 September)

Event Time Altitude Azimuth Distance (km) Brightness Sun altitude
Rises 18:43:03 0° 337° (NNW) 2,915 8.6 -17.1°
Reaches altitude 10° 18:45:19 10° 338° (NNW) 2,004 7.7 -17.5°
Maximum altitude 18:49:49 85° 65° (ENE) 634 4.5 -18.3°
Enters shadow 18:52:03 30° 155° (SSE) 1,136 5.5 -18.7°
